Regional Weather Roundup
Issued by NWS

Home | Current Version | Previous Version | Text Only | Print | Product List | Glossary On
Versions: 1 2 3 4 5 6 7 8 9 10 11 12 13 14 15 16 17 18 19 20 21 22 23 24 25 26 27 28 29 30 31 32 33 34 35 36 37 38 39 40 41 42 43 44 45 46 47 48 49 50
990
ASUS42 KFFC 301210
RWRGA
WEATHER ROUNDUP FOR GEORGIA
NATIONAL WEATHER SERVICE PEACHTREE CITY GA
700 AM EST MON NOV 30 2020

NOTE: "FAIR" INDICATES FEW OR NO CLOUDS BELOW 12,000 FEET WITH NO
SIGNIFICANT WEATHER AND/OR OBSTRUCTIONS TO VISIBILITY.

* = USE WITH CAUTION. THE STATIONS MARKED WITH AN ASTERISK MAY NOT
REPORT WEATHER SUCH AS PRECIPITATION, FOG, OR THUNDER AND ARE NOT
QUALITY CONTROLLED BY NWS.

THE REMARK "TC" DENOTES TEMPERATURE READING IN DEGREES CELSIUS.

GAZ001>058-301300-
NORTH GEORGIA

CITY           SKY/WX    TMP DP  RH WIND       PRES   REMARKS
ATLANTA        CLOUDY    46  41  82 W20G32    29.74R
6HR MIN TEMP:  46; 6HR MAX TEMP:  56; 6HR PCP:  0.13;

ATHENS         CLOUDY    54  51  90 W12G21    29.61R
6HR MIN TEMP:  52; 6HR MAX TEMP:  54; 6HR PCP:  0.90;

CHAMBLEE       CLOUDY    44  42  93 W18G28    29.72R FOG
6HR MIN TEMP:  44; 6HR MAX TEMP:  53; 6HR PCP:  0.17;

PEACHTREE CITY CLOUDY    46  42  86 W10G20    29.77R
6HR MIN TEMP:  46; 6HR MAX TEMP:  58; 6HR PCP:  0.20;

ROME           CLOUDY    44  38  79 W10G20    29.78R
6HR MIN TEMP:  44; 6HR MAX TEMP:  56; 6HR PCP:  0.14;

WEST ATLANTA   CLOUDY    45  40  82 W17G32    29.75R
6HR MIN TEMP:  45; 6HR MAX TEMP:  54; 6HR PCP:  0.29;

GAINESVILLE    CLOUDY    47  43  86 W15G26    29.65R
6HR MIN TEMP:  47; 6HR MAX TEMP:  50; 6HR PCP:  0.23;

CARTERSVILLE   CLOUDY    46  40  79 VRB5      29.78R
6HR MIN TEMP:  46; 6HR MAX TEMP:  56; 6HR PCP:  0.09;



CITY           SKY/WX    TMP DP  RH WIND       PRES   REMARKS
DALTON*        CLOUDY    45  37  76 NW7       29.78R
LAWRENCEVILLE* CLOUDY    46  44  93 W17G32    29.69R
MARIETTA       CLOUDY    44  40  88 W18G33    29.73R
KENNESAW*      CLOUDY    44  40  85 W14G24    29.75R
CANTON*        CLOUDY    45  43  93 NW17G25   29.73R
BLAIRSVILLE*   DRIZZLE   42  40  94 NW5       29.67R
$$

GAZ059>098-102>109-301300-
CENTRAL GEORGIA

CITY           SKY/WX    TMP DP  RH WIND       PRES   REMARKS
AUGUSTA-BUSH   PTCLDY    66  61  84 SW12      29.59S
6HR MIN TEMP:  60; 6HR MAX TEMP:  68; 6HR PCP:  0.19;

AUGUSTA-DANIEL PTCLDY    64  55  72 W10G22    29.60R
6HR MIN TEMP:  58; 6HR MAX TEMP:  68; 6HR PCP:  0.02;

COLUMBUS       CLOUDY    50  43  77 NW15G24   29.83R
6HR MIN TEMP:  50; 6HR MAX TEMP:  67; 6HR PCP:  0.04;

MACON          CLOUDY    53  44  71 NW17G40   29.75R
6HR MIN TEMP:  53; 6HR MAX TEMP:  69; 6HR PCP:  0.12;

ROBINS AFB     CLOUDY    53  46  77 NW18G32   29.75R


CITY           SKY/WX    TMP DP  RH WIND       PRES   REMARKS
LAGRANGE*      CLOUDY    46  41  81 NW13G18   29.82R
SYLVANIA*      HVY RAIN  68  65  92 SW13      29.64R
MILLEDGEVILLE* MOCLDY    61  55  82 MISG      29.65R
$$

GAZ099>101-110>166-301300-
SOUTH GEORGIA

CITY           SKY/WX    TMP DP  RH WIND       PRES   REMARKS
SAVANNAH       MOCLDY    69  66  90 S15G22    29.65F
6HR MIN TEMP:  66; 6HR MAX TEMP:  69; 6HR PCP:  0.20;

VALDOSTA       PTCLDY    58  51  78 VRB3      29.81R
6HR MIN TEMP:  58; 6HR MAX TEMP:  71; 6HR PCP:  1.01;

ALMA           MOCLDY    61  55  81 W13G24    29.74R
6HR MIN TEMP:  61; 6HR MAX TEMP:  69; 6HR PCP:  0.41;

ST SIMONS      RAIN      69  69 100 SW21G29   29.72R
6HR MIN TEMP:  68; 6HR MAX TEMP:  70; 6HR PCP:  0.24;

FT STEWART     LGT RAIN  68  66  94 SW9       29.65R
ALBANY         CLOUDY    54  46  74 NW15      29.85R
HUNTER AFB     LGT RAIN  67  65  91 S9        29.64F
MOODY AFB      PTCLDY    58  51  79 W13G24    29.79R
BRUNSWICK      LGT RAIN  68  66  93 SW21G31   29.72R FOG


CITY           SKY/WX    TMP DP  RH WIND       PRES   REMARKS
BAINBRIDGE*    CLOUDY    53  47  80 NW15      29.88R
MOULTRIE*      CLOUDY    54  46  76 W14G22    29.84R
VIDALIA*       MOCLDY    61  54  77 W9G16     29.71R
WAYCROSS*      MOCLDY    63  55  73 W17G28    29.74R
DOUGLAS*       PTCLDY    59  53  80 W10G23    29.78R
$$




USA.gov is the U.S. government's official web portal to all federal, state and local government web resources and services.